Date String (YYYY-MM-DD hh:mm:ss) UTC,Instrument flags,Ambient pressure (hPa),Sample flow (lpm),Bypass flow (lpm),Sample temperature (°C),Ambient temperature (°C),ASC tube jacket temperature (°C),LED temperature (°C),Box temperature (°C),Sample RH (%),Span deviation,Mass concentration (μg/m³),Mass concentration (μg/m³),Mass concentration (μg/m³)
DateTimeUTC,F1_M11,P_M11,Q1_M11,Q2_M11,T1_M11,T2_M11,T3_M11,T4_M11,T5_M11,U1_M11,ZSPAN_M11,X0_M11,X2_M11,X1_M11
2022-08-28 03:00:00,,0822.3,5.00,0.00,29.7,28.8,00.0,38.3,31.7,16.5,0000.0,0005.91,0003.11,0002.52
2022-08-28 03:01:00,,0822.3,5.01,0.00,29.7,28.9,00.0,38.4,31.7,16.6,0000.0,0005.96,0003.12,0002.51
2022-08-28 03:02:00,,0822.3,5.00,0.00,29.8,28.1,00.0,38.4,31.7,16.5,0000.0,0005.95,0003.14,0002.52
2022-08-28 03:03:00,,0822.3,4.99,0.00,29.7,26.5,00.0,38.4,31.5,16.5,0000.0,0005.96,0003.15,0002.53
2022-08-28 03:04:00,,0822.3,5.00,0.00,29.6,26.1,00.0,38.3,31.4,16.6,0000.0,0006.16,0003.19,0002.53
2022-08-28 03:05:00,,0822.3,5.00,0.00,29.6,26.4,00.0,38.3,31.3,16.7,0000.0,0005.31,0003.18,0002.54
2022-08-28 03:06:00,,0822.4,5.00,0.00,29.5,26.7,00.0,38.2,31.2,16.9,0000.0,0005.25,0003.17,0002.54
2022-08-28 03:07:00,,0822.4,5.00,0.00,29.4,27.1,00.0,38.2,31.2,17.1,0000.0,0005.16,0003.17,0002.55
2022-08-28 03:08:00,,0822.4,5.00,0.00,29.4,27.4,00.0,38.2,31.2,17.2,0000.0,0005.30,0003.18,0002.55
2022-08-28 03:09:00,,0822.4,5.01,0.00,29.4,27.7,00.0,38.2,31.3,17.0,0000.0,0005.46,0003.18,0002.56
2022-08-28 03:10:00,,0822.4,4.99,0.00,29.5,27.9,00.0,38.2,31.3,16.9,0000.0,0007.20,0003.20,0002.56
2022-08-28 03:11:00,,0822.4,5.00,0.00,29.5,28.1,00.0,38.2,31.3,16.9,0000.0,0007.56,0003.18,0002.55
2022-08-28 03:12:00,,0822.4,5.00,0.00,29.5,28.2,00.0,38.2,31.4,16.9,0000.0,0007.61,0003.19,0002.55
2022-08-28 03:13:00,,0822.4,5.00,0.00,29.5,28.4,00.0,38.2,31.4,16.8,0000.0,0007.60,0003.17,0002.53
2022-08-28 03:14:00,,0822.4,5.00,0.00,29.5,28.5,00.0,38.2,31.5,16.8,0000.0,0007.62,0003.18,0002.52
2022-08-28 03:15:00,,0822.4,5.00,0.00,29.6,28.6,00.0,38.3,31.5,16.9,0000.0,0007.67,0003.17,0002.53
2022-08-28 03:16:00,,0822.4,5.01,0.00,29.6,28.6,00.0,38.3,31.5,16.8,0000.0,0007.63,0003.14,0002.52
2022-08-28 03:17:00,,0822.4,5.01,0.00,29.6,28.7,00.0,38.3,31.6,16.7,0000.0,0007.61,0003.15,0002.53
2022-08-28 03:18:00,,0822.4,5.00,0.00,29.7,28.8,00.0,38.3,31.6,16.6,0000.0,0007.73,0003.19,0002.54
2022-08-28 03:19:00,,0822.4,4.99,0.00,29.7,28.8,00.0,38.4,31.7,16.5,0000.0,0007.70,0003.20,0002.55
2022-08-28 03:20:00,,0822.4,5.00,0.00,29.8,28.9,00.0,38.4,31.7,16.5,0000.0,0007.94,0003.19,0002.55
2022-08-28 03:21:00,,0822.4,4.99,0.00,29.8,28.3,00.0,38.4,31.7,16.5,0000.0,0007.90,0003.18,0002.57
2022-08-28 03:22:00,,0822.4,5.02,0.00,29.7,26.8,00.0,38.4,31.5,16.5,0000.0,0007.68,0003.18,0002.60
2022-08-28 03:23:00,,0822.4,5.00,0.00,29.7,26.1,00.0,38.3,31.4,16.4,0000.0,0007.79,0003.18,0002.62
2022-08-28 03:24:00,,0822.4,4.99,0.00,29.6,26.2,00.0,38.3,31.3,15.8,0000.0,0008.23,0003.20,0002.66
2022-08-28 03:25:00,,0822.4,5.01,0.00,29.5,26.6,00.0,38.2,31.2,16.3,0000.0,0008.26,0003.21,0002.70
2022-08-28 03:26:00,,0822.4,5.00,0.00,29.5,26.9,00.0,38.2,31.2,16.8,0000.0,0008.17,0003.21,0002.71
2022-08-28 03:27:00,,0822.4,5.00,0.00,29.4,27.3,00.0,38.2,31.2,16.8,0000.0,0008.15,0003.22,0002.73
2022-08-28 03:28:00,,0822.3,5.01,0.00,29.5,27.6,00.0,38.2,31.3,16.8,0000.0,0008.10,0003.22,0002.73
2022-08-28 03:29:00,,0822.3,4.99,0.00,29.5,27.8,00.0,38.2,31.3,16.9,0000.0,0008.03,0003.20,0002.74
2022-08-28 03:30:00,,0822.3,5.01,0.00,29.5,28.0,00.0,38.2,31.3,16.6,0000.0,0008.07,0003.21,0002.75
2022-08-28 03:31:00,,0822.3,5.00,0.00,29.5,28.1,00.0,38.2,31.4,16.4,0000.0,0007.73,0003.22,0002.76
2022-08-28 03:32:00,,0822.3,5.00,0.00,29.5,28.2,00.0,38.2,31.4,16.3,0000.0,0006.80,0003.24,0002.74
2022-08-28 03:33:00,,0822.2,5.00,0.00,29.5,28.4,00.0,38.2,31.4,16.0,0000.0,0007.46,0003.27,0002.74
2022-08-28 03:34:00,,0822.2,4.99,0.00,29.6,28.5,00.0,38.3,31.5,15.8,0000.0,0007.56,0003.25,0002.74
2022-08-28 03:35:00,,0822.2,5.00,0.00,29.6,28.6,00.0,38.3,31.5,15.4,0000.0,0007.62,0003.27,0002.76
2022-08-28 03:36:00,,0822.2,5.01,0.00,29.6,28.6,00.0,38.3,31.6,15.2,0000.0,0008.43,0003.31,0002.79
2022-08-28 03:37:00,,0822.2,5.00,0.00,29.7,28.7,00.0,38.3,31.6,15.3,0000.0,0008.79,0003.33,0002.83
2022-08-28 03:38:00,,0822.2,5.00,0.00,29.7,28.8,00.0,38.3,31.6,15.2,0000.0,0008.98,0003.38,0002.86
2022-08-28 03:39:00,,0822.2,5.00,0.00,29.7,28.8,00.0,38.4,31.7,15.3,0000.0,0009.07,0003.43,0002.89
2022-08-28 03:40:00,,0822.2,4.99,0.00,29.8,28.6,00.0,38.4,31.7,15.3,0000.0,0009.34,0003.44,0002.91
2022-08-28 03:41:00,,0822.1,5.01,0.00,29.7,27.2,00.0,38.4,31.6,15.4,0000.0,0009.69,0003.45,0002.93
2022-08-28 03:42:00,,0822.1,4.99,0.00,29.7,26.9,00.0,38.3,31.5,15.5,0000.0,0009.75,0003.47,0002.97
2022-08-28 03:43:00,,0822.1,5.00,0.00,29.6,27.0,00.0,38.3,31.4,15.6,0000.0,0009.67,0003.48,0003.01
2022-08-28 03:44:00,,0822.1,5.00,0.00,29.6,27.3,00.0,38.3,31.3,15.6,0000.0,0008.98,0003.49,0003.04
2022-08-28 03:45:00,,0822.2,4.99,0.00,29.6,27.6,00.0,38.3,31.4,15.7,0000.0,0008.91,0003.53,0003.06
2022-08-28 03:46:00,,0822.1,5.00,0.00,29.6,27.8,00.0,38.3,31.4,15.7,0000.0,0008.35,0003.52,0003.04
2022-08-28 03:47:00,,0822.1,5.00,0.00,29.6,28.0,00.0,38.3,31.4,15.7,0000.0,0007.62,0003.51,0003.03
2022-08-28 03:48:00,,0822.1,4.99,0.00,29.6,28.2,00.0,38.3,31.5,15.8,0000.0,0007.39,0003.51,0003.01
2022-08-28 03:49:00,,0822.1,5.00,0.00,29.6,28.3,00.0,38.3,31.5,15.7,0000.0,0007.13,0003.47,0003.00
2022-08-28 03:50:00,,0822.1,5.01,0.00,29.6,28.5,00.0,38.3,31.5,15.8,0000.0,0006.91,0003.41,0002.97
2022-08-28 03:51:00,,0822.1,5.00,0.00,29.7,28.6,00.0,38.4,31.6,15.7,0000.0,0006.25,0003.38,0002.95
2022-08-28 03:52:00,,0822.1,5.00,0.00,29.7,28.6,00.0,38.4,31.6,15.4,0000.0,0005.38,0003.36,0002.93
2022-08-28 03:53:00,,0822.1,5.01,0.00,29.7,28.7,00.0,38.4,31.7,15.5,0000.0,0005.22,0003.34,0002.91
2022-08-28 03:54:00,,0822.1,5.00,0.00,29.7,28.8,00.0,38.4,31.7,15.6,0000.0,0005.12,0003.32,0002.87
2022-08-28 03:55:00,,0822.1,5.00,0.00,29.8,28.9,00.0,38.4,31.7,15.6,0000.0,0005.14,0003.30,0002.83
2022-08-28 03:56:00,,0822.1,5.00,0.00,29.8,28.9,00.0,38.5,31.8,15.6,0000.0,0004.98,0003.26,0002.82
2022-08-28 03:57:00,,0822.1,5.00,0.00,29.8,28.0,00.0,38.5,31.7,15.5,0000.0,0004.93,0003.26,0002.82
2022-08-28 03:58:00,,0822.1,4.99,0.00,29.8,27.1,00.0,38.4,31.6,15.5,0000.0,0004.93,0003.23,0002.79
2022-08-28 03:59:00,,0822.1,5.01,0.00,29.7,27.1,00.0,38.4,31.5,15.5,0000.0,0004.67,0003.20,0002.77
